Weather History for Idabel, OK

Change the Weather History Date:

Thursday, October 10, 2013

  Actual Average (KDEQ) Record (KDEQ)
Temperature  
Mean Temperature 66 °F 65 °F  
Max Temperature 80 °F 78 °F 95 °F (1963)
Min Temperature 51 °F 52 °F 30 °F (2000)
Degree Days  
Heating Degree Days 0 3  
Month to date heating degree days 22  
Since 1 July heating degree days 31  
Cooling Degree Days 0 3  
Month to date cooling degree days 34  
Year to date cooling degree days 1899  
Growing Degree Days 16 (Base 50)    
Moisture  
Dew Point 53 °F    
Average Humidity 68    
Maximum Humidity 100    
Minimum Humidity 37    
Precipitation  
Precipitation 0.00 in 0.13 in 2.20 in (2014)
Month to date precipitation 1.49  
Year to date precipitation 36.69  
Snow  
Snow 0.00 in - - ()
Month to date snowfall  
Since 1 July snowfall  
Since 1 September snowfall  
Snow Depth -    
Sea Level Pressure  
Sea Level Pressure 30.04 in    
Wind  
Wind Speed 5 mph (ESE)    
Max Wind Speed 12 mph    
Max Gust Speed -    
Visibility 10 miles    
Events      
T = Trace of Precipitation, MM = Missing Value Source: NWS Daily Summary

Daily Weather History Graph

Daily Weather History Graph

Search for Another Location

Airport:

Trip Planner

Search our weather history database for the weather conditions in past years. The results will help you decide how hot, cold, wet, or windy it might be!

Date:

Astronomy

Oct. 10, 2013 Rise Set
Actual Time 7:20 AM CDT 6:51 PM CDT
Civil Twilight 6:55 AM CDT 7:16 PM CDT
Nautical Twilight 6:26 AM CDT 7:45 PM CDT
Astronomical Twilight 5:57 AM CDT 8:14 PM CDT
Moon 1:03 PM CDT (10/10) 11:40 PM CDT (10/10)
Length of Visible Light 12h 20m
Length of Day
11h 30m
Waxing Crescent, 36% of the Moon is Illuminated
Oct 10
Waxing Crescent
Oct 11
First Quarter
Oct 18
Full
Oct 26
Last Quarter
Nov 3
New

Hourly Weather History & Observations

Time (CDT) Temp. Heat Index Dew Point Humidity Pressure Visibility Wind Dir Wind Speed Gust Speed Precip Events Conditions
12:15 AM 59.0 °F - 51.8 °F 77% 30.06 in 10.0 mi ESE 5.8 mph - N/A   Clear
12:35 AM 59.0 °F - 51.8 °F 77% 30.06 in 10.0 mi East 5.8 mph - N/A   Clear
12:55 AM 57.2 °F - 51.8 °F 82% 30.06 in 10.0 mi East 5.8 mph - N/A   Clear
1:15 AM 55.4 °F - 51.8 °F 88% 30.06 in 10.0 mi East 3.5 mph - N/A   Clear
1:35 AM 53.6 °F - 50.0 °F 88% 30.06 in 10.0 mi East 4.6 mph - N/A   Clear
1:55 AM 53.6 °F - 51.8 °F 94% 30.07 in 10.0 mi East 3.5 mph - N/A   Clear
2:15 AM 53.6 °F - 51.8 °F 94% 30.07 in 10.0 mi East 3.5 mph - N/A   Clear
2:35 AM 53.6 °F - 50.0 °F 88% 30.07 in 10.0 mi East 3.5 mph - N/A   Clear
2:55 AM 53.6 °F - 51.8 °F 94% 30.07 in 7.0 mi Calm Calm - N/A   Clear
3:15 AM 51.8 °F - 50.0 °F 94% 30.07 in 4.0 mi Calm Calm - N/A   Clear
3:35 AM 51.8 °F - 50.0 °F 94% 30.07 in 5.0 mi Calm Calm - N/A   Clear
3:55 AM 51.8 °F - 50.0 °F 94% 30.07 in 5.0 mi Calm Calm - N/A   Clear
4:15 AM 51.8 °F - 50.0 °F 94% 30.07 in 7.0 mi Calm Calm - N/A   Clear
4:35 AM 51.8 °F - 50.0 °F 94% 30.07 in 10.0 mi Calm Calm - N/A   Clear
4:55 AM 51.8 °F - 50.0 °F 94% 30.07 in 10.0 mi ENE 3.5 mph - N/A   Clear
5:15 AM 51.8 °F - 50.0 °F 94% 30.07 in 10.0 mi East 4.6 mph - N/A   Clear
5:35 AM 51.8 °F - 50.0 °F 94% 30.08 in 10.0 mi Calm Calm - N/A   Clear
5:55 AM 51.8 °F - 50.0 °F 94% 30.08 in 10.0 mi ENE 3.5 mph - N/A   Clear
6:15 AM 51.8 °F - 50.0 °F 94% 30.08 in 10.0 mi East 3.5 mph - N/A   Clear
6:35 AM 51.8 °F - 50.0 °F 94% 30.08 in 10.0 mi ENE 4.6 mph - N/A   Clear
6:55 AM 51.8 °F - 50.0 °F 94% 30.08 in 10.0 mi Calm Calm - N/A   Clear
7:15 AM 51.8 °F - 50.0 °F 94% 30.08 in 10.0 mi Calm Calm - N/A   Clear
7:35 AM 51.8 °F - 50.0 °F 94% 30.09 in 10.0 mi ENE 4.6 mph - N/A   Clear
7:55 AM 51.8 °F - 51.8 °F 100% 30.09 in 10.0 mi East 4.6 mph - N/A   Clear
8:15 AM 53.6 °F - 51.8 °F 94% 30.10 in 10.0 mi East 4.6 mph - N/A   Clear
8:35 AM 55.4 °F - 53.6 °F 94% 30.10 in 10.0 mi East 4.6 mph - N/A   Clear
8:55 AM 57.2 °F - 53.6 °F 88% 30.11 in 10.0 mi East 5.8 mph - N/A   Clear
9:15 AM 59.0 °F - 53.6 °F 82% 30.11 in 10.0 mi ENE 4.6 mph - N/A   Clear
9:35 AM 62.6 °F - 53.6 °F 72% 30.12 in 10.0 mi East 3.5 mph - N/A   Clear
9:55 AM 64.4 °F - 55.4 °F 73% 30.11 in 10.0 mi East 4.6 mph - N/A   Clear
10:15 AM 68.0 °F - 55.4 °F 64% 30.12 in 10.0 mi Calm Calm - N/A   Clear
10:35 AM 69.8 °F - 55.4 °F 60% 30.12 in 10.0 mi ESE 4.6 mph - N/A   Clear
10:55 AM 71.6 °F - 55.4 °F 57% 30.11 in 10.0 mi SE 3.5 mph - N/A   Clear
11:15 AM 73.4 °F - 57.2 °F 57% 30.11 in 10.0 mi Calm Calm - N/A   Clear
11:35 AM 73.4 °F - 57.2 °F 57% 30.11 in 10.0 mi Calm Calm - N/A   Clear
11:55 AM 75.2 °F - 59.0 °F 57% 30.10 in 10.0 mi SSE 4.6 mph - N/A   Clear
12:15 PM 77.0 °F - 55.4 °F 47% 30.09 in 10.0 mi South 3.5 mph - N/A   Clear
12:35 PM 77.0 °F - 55.4 °F 47% 30.08 in 10.0 mi South 4.6 mph - N/A   Clear
12:55 PM 78.8 °F - 55.4 °F 44% 30.07 in 10.0 mi SSE 8.1 mph - N/A   Clear
1:15 PM 78.8 °F - 55.4 °F 44% 30.06 in 10.0 mi South 9.2 mph - N/A   Scattered Clouds
1:35 PM 78.8 °F - 55.4 °F 44% 30.05 in 10.0 mi ESE 6.9 mph - N/A   Clear
1:55 PM 78.8 °F - 55.4 °F 44% 30.04 in 10.0 mi ESE 9.2 mph - N/A   Clear
2:15 PM 78.8 °F - 55.4 °F 44% 30.02 in 10.0 mi ESE 4.6 mph - N/A   Clear
2:35 PM 80.6 °F 80.3 °F 53.6 °F 39% 30.02 in 10.0 mi SE 5.8 mph - N/A   Clear
2:55 PM 80.6 °F 80.3 °F 53.6 °F 39% 30.00 in 10.0 mi SE 6.9 mph - N/A   Clear
3:15 PM 80.6 °F - 51.8 °F 37% 29.99 in 10.0 mi ESE 10.4 mph - N/A   Clear
3:35 PM 80.6 °F 80.3 °F 53.6 °F 39% 29.99 in 10.0 mi SSE 8.1 mph - N/A   Clear
3:55 PM 80.6 °F 80.3 °F 53.6 °F 39% 29.98 in 10.0 mi ESE 6.9 mph - N/A   Clear
4:15 PM 80.6 °F - 51.8 °F 37% 29.98 in 10.0 mi SE 8.1 mph - N/A   Clear
4:35 PM 80.6 °F - 51.8 °F 37% 29.98 in 10.0 mi SE 8.1 mph - N/A   Clear
4:55 PM 80.6 °F - 51.8 °F 37% 29.97 in 10.0 mi SE 9.2 mph - N/A   Clear
5:15 PM 80.6 °F - 51.8 °F 37% 29.97 in 10.0 mi SE 10.4 mph - N/A   Clear
5:35 PM 78.8 °F - 51.8 °F 39% 29.97 in 10.0 mi SE 9.2 mph - N/A   Clear
5:55 PM 78.8 °F - 51.8 °F 39% 29.97 in 10.0 mi SE 10.4 mph - N/A   Clear
6:15 PM 77.0 °F - 51.8 °F 41% 29.96 in 10.0 mi SSE 8.1 mph - N/A   Clear
6:35 PM 75.2 °F - 51.8 °F 44% 29.97 in 10.0 mi SE 6.9 mph - N/A   Clear
6:55 PM 71.6 °F - 53.6 °F 53% 29.96 in 10.0 mi SE 5.8 mph - N/A   Clear
7:15 PM 69.8 °F - 53.6 °F 56% 29.96 in 10.0 mi SE 5.8 mph - N/A   Clear
7:35 PM 68.0 °F - 53.6 °F 60% 29.96 in 10.0 mi SE 5.8 mph - N/A   Clear
7:55 PM 68.0 °F - 53.6 °F 60% 29.97 in 10.0 mi ESE 6.9 mph - N/A   Clear
8:15 PM 68.0 °F - 53.6 °F 60% 29.96 in 10.0 mi SE 6.9 mph - N/A   Clear
8:35 PM 68.0 °F - 53.6 °F 60% 29.96 in 10.0 mi SE 6.9 mph - N/A   Clear
8:55 PM 68.0 °F - 53.6 °F 60% 29.97 in 10.0 mi SE 6.9 mph - N/A   Clear
9:15 PM 66.2 °F - 53.6 °F 64% 29.97 in 10.0 mi ESE 5.8 mph - N/A   Clear
9:35 PM 66.2 °F - 53.6 °F 64% 29.97 in 10.0 mi ESE 6.9 mph - N/A   Clear
9:55 PM 64.4 °F - 53.6 °F 68% 29.98 in 10.0 mi ESE 6.9 mph - N/A   Clear
10:15 PM 64.4 °F - 53.6 °F 68% 29.98 in 10.0 mi ESE 6.9 mph - N/A   Clear
10:35 PM 62.6 °F - 53.6 °F 72% 29.98 in 10.0 mi ESE 6.9 mph - N/A   Clear
10:55 PM 62.6 °F - 53.6 °F 72% 29.98 in 10.0 mi ESE 6.9 mph - N/A   Clear
11:15 PM 62.6 °F - 53.6 °F 72% 29.97 in 10.0 mi ESE 10.4 mph - N/A   Clear
11:35 PM 62.6 °F - 55.4 °F 77% 29.96 in 10.0 mi SE 11.5 mph - N/A   Clear
11:55 PM 64.4 °F - 55.4 °F 73% 29.96 in 10.0 mi ESE 6.9 mph - N/A   Clear